Location: Newark
(45.2500°N, 7.5833°E)
Time: 21:01:27
(UTC+00:00)

A-11 Canister half - Pass Details

Date: 26 January 2020
Orbit: 1524 x 1684 km, 47.3° (Epoch: 26 February)

Event Time Altitude Azimuth Distance (km) Brightness Sun altitude
Rises 17:55:22 0° 249° (WSW) 4,672 13.3 -15.4°
Reaches altitude 10° 17:58:22 10° 249° (WSW) 3,699 12.3 -16.0°
Maximum altitude 18:07:45 88° 162° (SSE) 1,562 9.0 -17.6°
Enters shadow 18:14:01 26° 74° (ENE) 2,756 9.7 -18.7°
Drops below altitude 10° 18:17:25 10° 74° (ENE) 3,808 - -19.3°
Sets 18:20:34 0° 75° (ENE) 4,816 - -19.8°
